Flag for Portugal Weather past 2 weeks in Amadora, Portugal

Now
54 °F

Clear.


Feels Like: 50 °F
Forecast: N/A
Wind: 10 mph from North

Location: Lisbon Portela Airport

Current Time: Mar 27, 2015 at 10:39:58 PM

Latest Report: Mar 27, 2015 at 9:30 PM


Visibility: 10 mi

Pressure: 30.42 "Hg

Humidity: 82%

Dew point: 48 °F

Location of AmadoraLocation

Historic Weather in Amadora — Graph

°F

Amadora temperature yesterday

Maximum temperature yesterday: 61 °F (at 3:00 PM)
Minimum temperature yesterday: 50 °F (at 12:00 AM)
Average temperature yesterday: 54 °F

Past Weeks' High & Low Weather Summary

 TemperatureHumidityPressure
High68 °F (Mar 20, 2:00 PM)100% (Mar 17, 8:00 AM)30.45 "Hg (Mar 17, 8:00 AM)
Low46 °F (Mar 15, 11:30 PM)22% (Mar 14, 2:00 PM)29.65 "Hg (Mar 24, 4:30 AM)
Average54 °F72%29.95 "Hg
* Reported Mar 12 8:00 PM — Mar 27 8:30 PM, Amadora, Weather by CustomWeather, © 2015

Note: Actual official high and low records may vary slightly from our data, if they occured in-between our weather recording intervals... More about our weather records

Advertising

Amadora weather history for previous 24 hours

 ConditionsComfort  
Time TempWeatherWind HumidityBarometerVisibility
8:30 PM
Fri, Mar 27
55 °FClear.16 mph72%30.42 "Hg10 mi
8:00 PM55 °FClear.15 mph72%30.42 "Hg10 mi
7:30 PM55 °FClear.18 mph77%30.39 "Hg10 mi
7:00 PM57 °FClear.21 mph72%30.39 "Hg10 mi
6:30 PM59 °FSunny.21 mph68%30.39 "Hg10 mi
6:00 PM61 °FPassing clouds.21 mph63%30.39 "HgN/A
5:30 PM61 °FPassing clouds.17 mph63%30.36 "HgN/A
5:00 PM63 °FPassing clouds.20 mph59%30.36 "HgN/A
4:30 PM64 °FPassing clouds.17 mph60%30.36 "HgN/A
4:01 PM64 °FPassing clouds.17 mph60%30.36 "HgN/A
3:30 PM64 °FPassing clouds.21 mph60%30.36 "HgN/A
3:00 PM64 °FPassing clouds.16 mph60%30.36 "HgN/A
2:30 PM64 °FPassing clouds.18 mph64%30.36 "HgN/A
2:00 PM64 °FPassing clouds.17 mph64%30.39 "HgN/A
1:30 PM63 °FPassing clouds.16 mph68%30.39 "HgN/A
1:00 PM61 °FPassing clouds.16 mph72%30.39 "HgN/A
12:30 PM61 °FPassing clouds.14 mph72%30.42 "HgN/A
12:00 PM61 °FScattered clouds.16 mph72%30.42 "HgN/A
11:30 AM61 °FPartly sunny.13 mph72%30.42 "HgN/A
11:00 AM61 °FPartly sunny.15 mph72%30.42 "HgN/A
10:30 AM57 °FPartly sunny.12 mph77%30.42 "HgN/A
10:00 AM57 °FPartly sunny.14 mph77%30.45 "HgN/A
9:30 AM55 °FPartly sunny.13 mph82%30.42 "HgN/A
9:00 AM55 °FPartly sunny.10 mph82%30.42 "HgN/A
8:30 AM55 °FPartly sunny.8 mph82%30.42 "HgN/A
8:00 AM54 °FPartly sunny.9 mph82%30.42 "HgN/A
7:30 AM54 °FPartly sunny.9 mph82%30.39 "HgN/A
7:00 AM54 °FPartly sunny.12 mph82%30.39 "HgN/A
6:30 AM54 °FPartly sunny.9 mph82%30.39 "HgN/A
6:00 AM54 °FPassing clouds.9 mph82%30.39 "HgN/A
5:30 AM54 °FPassing clouds.16 mph82%30.39 "HgN/A
5:00 AM54 °FPassing clouds.22 mph82%30.39 "HgN/A
4:30 AM54 °FPassing clouds.20 mph82%30.36 "HgN/A
4:00 AM54 °FPassing clouds.23 mph82%30.39 "HgN/A
3:00 AM54 °FPassing clouds.17 mph88%30.36 "HgN/A
2:30 AM54 °FPassing clouds.15 mph88%30.39 "HgN/A
2:00 AM54 °FPassing clouds.13 mph82%30.36 "HgN/A
1:30 AM54 °FPassing clouds.14 mph82%30.36 "HgN/A
1:00 AM54 °FPassing clouds.13 mph88%30.39 "HgN/A
12:30 AM55 °FPassing clouds.14 mph82%30.39 "HgN/A
12:00 AM55 °FPassing clouds.12 mph82%30.39 "HgN/A
11:30 PM
Thu, Mar 26
55 °FPassing clouds.9 mph88%30.39 "HgN/A
11:00 PM55 °FPassing clouds.8 mph88%30.39 "HgN/A
10:30 PM55 °FPassing clouds.8 mph88%30.36 "HgN/A
10:00 PM55 °FPartly cloudy.7 mph88%30.36 "HgN/A
Weather by CustomWeather, © 2015

See weather overviewHow to use our weather pages